RH
98 90 77 72 66 55 52 61 75 83 82 73 77 75 68 63 51 42 39 35 32 32 32 42 41 46 41 43 47 36 35 38 34 27 26 30 31 27 33 33 39 48 55 64 70 59 50 57 59 51 55 62 73 82
74 67 59 56 53 51 49 48 51 52 54 54 56 68 72 72 63 50 54 49 39 36 42 49 48 42 37 36 37 29 23 22 19 20 22 24 27 31 40 48 50 52 62 69 65 55 62 72 71 85 81 80 88 96
73 86 83 64 52 56 51 48 49 50 46 48 59 58 63 65 57 50 50 52 53 40 39 36 36 35 38 40 33 25 25 21 22 22 23 37 45 46 47 59 65 79 94 74 63 58 78 72 71 85 100 100 92 60
81 78 76 67 68 52 49 49 42 37 32 31 44 50 50 38 31 23 31 34 27 26 33 37 24 27 35 34 35 36 30 24 28 37 43 48 55 52 63 64 65 100 92 82 55 78 76 75 88 100 100 98 94 68
60 68 72 63 63 51 36 38 39 34 29 32 28 25 27 23 19 20 25 25 26 21 23 26 22 22 27 25 27 33 43 44 46 49 55 59 65 77 85 72 100 100 100 79 77 78 79 97 100 91 96 100 88 42
36 44 47 45 45 41 39 39 39 33 32 30 34 29 29 24 21 21 24 24 24 21 23 23 26 30 30 33 33 49 58 61 65 70 74 69 81 78 76 88 100 100 100 100 100 100 100 100 100 100 99 97 63 25
44 37 33 33 38 41 41 37 32 31 32 30 32 27 25 24 25 30 35 39 40 40 43 40 44 55 63 64 68 75 77 79 83 82 79 88 96 95 92 99 100 100 100 100 100 100 100 100 99 86 78 63 26 16
78 78 60 56 50 51 46 48 45 40 38 34 30 28 30 30 31 38 44 51 57 58 62 65 69 77 79 78 79 76 82 89 93 97 99 100 99 100 88 100 100 100 100 100 100 100 100 88 74 62 46 20 15 15
60 57 52 54 46 36 35 35 35 36 42 45 42 38 44 49 50 52 57 62 64 67 75 78 90 90 83 86 96 96 95 91 93 100 100 99 100 100 100 100 100 100 100 100 79 54 39 40 46 35 17 14 13 12
58 47 46 51 54 53 53 54 61 62 64 71 65 56 53 54 62 68 70 74 80 82 79 86 87 89 94 92 95 100 100 100 100 100 100 100 100 100 100 100 100 100 99 53 28 30 24 24 20 14 13 13 11 9
71 70 75 77 79 85 77 69 75 78 74 66 64 65 62 65 74 78 81 87 88 88 83 100 99 96 96 95 95 90 88 92 91 88 88 91 100 100 100 98 51 24 22 21 22 21 16 13 11 10 11 10 9 9
82 83 83 78 84 87 83 76 75 69 67 70 74 78 86 91 94 94 97 100 100 100 95 93 92 97 100 99 99 96 95 81 81 78 78 97 100 78 33 18 15 15 17 17 14 11 11 11 10 10 9 9 8 9
79 86 87 84 93 95 84 76 74 78 85 88 94 96 98 100 94 99 100 100 100 100 100 100 100 99 97 88 66 66 64 69 57 36 37 46 28 15 13 12 13 13 12 11 9 8 7 7 8 8 8 8 7 6
67 79 89 83 67 72 74 78 73 80 87 90 90 83 90 94 99 98 89 83 80 92 93 95 93 80 64 34 31 28 22 15 17 22 24 13 12 12 12 12 11 10 9 8 7 6 6 6 6 7 6 5 4 5
47 43 47 58 69 66 78 86 73 63 67 73 74 76 72 78 81 64 28 29 39 50 62 58 43 23 14 14 13 14 14 14 16 13 11 10 10 10 11 10 8 6 6 6 6 6 6 6 6 6 6 5 5 5
16 15 16 23 35 39 34 20 16 14 16 15 14 15 17 20 14 12 16 19 18 18 15 12 11 11 11 12 11 12 13 12 9 8 9 11 11 10 10 10 8 7 7 7 7 7 6 6 6 6 6 5 4 4
12 12 12 12 12 12 12 12 12 11 11 11 11 10 9 9 10 10 10 10 9 9 9 9 9 8 9 10 11 11 10 8 7 8 10 9 10 11 10 8 9 8 8 7 6 7 7 6 5 5 4 4 4 4
13 12 12 12 12 11 11 11 10 10 11 11 10 10 10 10 9 10 9 8 9 9 9 9 9 9 10 10 8 8 7 7 9 10 10 9 8 8 8 9 8 7 7 6 6 5 5 5 4 4 4 4 4 4
15 15 16 14 15 14 14 15 11 11 11 10 11 11 9 10 9 8 8 8 7 7 7 8 8 8 8 7 7 7 7 8 7 7 7 6 6 6 6 6 5 5 4 5 5 5 4 4 5 4 4 4 4 4
17 18 18 16 17 17 17 16 13 12 12 14 12 11 11 12 11 10 9 8 7 7 7 5 5 5 5 5 5 5 5 5 5 6 5 5 5 5 5 4 4 5 5 5 5 5 5 5 5 5 5 5 5 5
22 21 20 20 18 17 18 14 15 14 13 15 13 12 13 12 12 11 10 10 11 8 6 6 5 4 4 4 4 5 5 5 5 5 5 6 6 5 5 5 5 5 6 6 6 6 6 6 6 6 5 5 5 5
23 23 23 20 19 18 16 14 14 14 13 13 12 12 13 13 12 12 13 12 10 9 8 7 6 6 5 5 5 5 5 5 5 5 5 5 5 6 6 6 6 7 6 7 7 7 7 7 6 6 6 6 6 6
22 26 31 28 25 19 19 17 16 14 14 14 12 13 14 13 13 13 14 13 12 10 10 10 10 9 8 6 5 5 5 6 6 6 6 6 6 6 6 6 7 8 8 8 7 7 8 8 7 7 7 7 6 6
23 30 34 36 26 23 22 21 17 14 13 12 12 13 13 13 14 15 15 12 11 11 12 12 11 10 10 10 8 7 6 6 6 6 6 6 6 6 6 7 8 9 10 9 8 8 8 8 8 8 7 7 6 6
30 32 33 33 30 31 32 27 20 18 17 15 14 13 12 12 13 14 14 11 11 12 12 12 11 11 11 11 11 10 9 7 6 6 6 6 6 5 6 6 7 9 10 10 9 8 8 8 8 8 7 7 7 7
34 33 32 31 32 31 29 27 23 18 15 14 14 13 13 12 12 12 12 12 12 12 12 11 11 11 11 11 11 11 11 10 9 7 7 7 6 5 5 5 5 6 10 11 9 7 8 8 8 8 8 8 7 7
38 33 30 30 30 27 27 26 22 18 16 15 14 13 12 13 13 12 12 12 11 10 10 10 10 10 10 10 10 10 10 10 10 10 11 11 10 8 6 6 5 5 6 7 9 9 8 9 9 9 8 9 8 8
37 34 28 25 21 19 17 16 15 15 14 14 13 13 12 12 12 12 12 12 11 10 10 10 10 10 10 10 10 10 10 10 10 11 11 12 12 11 10 9 7 6 6 6 6 7 9 10 9 9 9 9 9 8
35 27 21 18 15 14 13 12 12 12 12 12 12 11 11 12 11 11 11 10 11 11 10 11 11 11 11 11 11 11 11 10 10 10 10 10 10 11 12 12 10 8 7 6 6 7 7 8 9 9 9 9 9 9
16 15 15 14 13 12 12 11 11 11 11 10 10 10 10 10 10 10 10 10 10 10 10 11 11 11 11 11 11 10 10 10 10 9 9 9 10 10 10 11 12 12 10 8 7 6 7 7 7 8 9 9 9 9
14 13 12 11 11 10 10 10 10 10 10 10 9 9 9 10 10 9 9 9 10 10 10 10 10 10 10 10 10 10 10 10 10 10 10 9 9 9 10 10 10 12 12 12 11 9 8 7 6 6 7 8 10 9
10 10 10 10 10 10 9 9 9 9 8 8 8 8 8 8 8 8 8 8 8 9 9 9 9 9 9 9 9 9 10 10 10 10 10 10 9 9 9 9 10 10 11 11 12 12 11 10 9 7 6 6 6 8
9 8 8 8 8 8 7 7 7 7 7 7 7 6 6 6 7 7 7 7 7 8 8 8 8 8 8 8 8 8 8 9 9 9 10 10 10 9 9 8 9 9 10 10 10 10 11 11 11 11 10 8 6 6
Wind_Speed
66 66 66 65 66 65 65 67 64 64 64 64 62 64 65 66 66 66 65 64 61 59 61 63 65 69 67 70 68 63 62 68 68 73 76 79 78 80 86 90 93 93 96 100 99 100 97 100 104 111 112 114 124 126
73 74 72 71 69 69 70 71 70 72 73 75 78 75 72 71 71 74 73 72 71 71 69 73 74 73 70 70 63 65 69 74 80 82 86 89 91 89 89 85 92 96 104 104 105 101 107 112 114 118 122 126 132 135
75 75 75 76 76 74 73 72 68 71 71 72 77 80 79 77 77 79 79 80 78 73 73 73 74 76 78 77 76 74 83 90 93 94 94 98 95 96 99 93 98 104 114 112 108 109 118 119 123 125 130 135 137 135
79 80 80 82 82 80 78 76 76 75 79 79 77 77 77 78 81 86 84 82 77 77 72 70 71 75 80 82 87 94 100 101 103 100 100 102 107 105 102 103 103 114 119 119 113 121 123 127 131 133 136 143 144 140
86 87 86 86 85 84 85 84 84 84 86 84 83 83 84 85 84 79 75 81 83 80 72 70 76 84 86 90 95 103 104 105 107 107 110 112 115 118 113 111 111 122 127 128 126 132 133 133 135 137 144 148 145 135
99 96 93 92 94 91 91 91 92 95 93 96 95 95 95 93 90 86 92 91 90 89 86 84 84 93 97 102 110 109 111 113 113 115 115 118 122 124 121 117 120 129 133 136 136 141 144 144 144 149 147 147 137 125
105 107 106 104 102 99 98 99 106 106 101 98 99 98 98 96 99 99 98 97 102 102 97 95 95 101 109 113 115 116 121 120 122 125 122 123 128 129 129 129 136 137 144 144 146 149 150 148 150 143 140 137 127 124
103 102 104 105 108 109 111 109 108 108 110 106 103 104 105 106 111 111 108 106 105 106 108 110 103 112 119 121 122 126 129 131 130 130 130 131 132 135 135 141 138 145 149 150 154 156 153 146 141 140 137 128 124 122
113 114 114 115 115 117 121 119 119 120 117 112 114 116 112 114 114 115 117 114 117 121 121 119 121 127 127 129 131 134 137 138 139 138 138 140 139 140 145 146 151 153 152 158 150 143 139 136 136 132 125 121 120 118
121 123 124 124 123 124 123 121 119 121 121 121 119 123 122 120 121 124 123 123 125 127 131 132 138 138 139 141 140 142 144 144 144 142 145 145 143 149 152 156 160 160 157 149 141 135 130 130 126 121 118 118 118 116
128 126 127 128 128 127 128 129 128 126 128 130 129 129 131 131 130 133 131 130 135 135 141 143 144 147 149 149 151 153 151 151 149 146 146 147 153 159 162 160 149 140 135 133 131 130 124 121 116 112 111 112 110 107
134 135 134 136 138 139 138 139 139 137 138 138 137 139 139 140 139 136 138 138 141 147 149 153 156 157 157 158 159 158 157 155 153 151 149 152 158 158 142 131 127 125 126 126 124 120 117 115 113 111 108 106 102 98
144 146 143 145 145 145 144 143 145 145 147 147 147 146 147 146 148 147 147 152 157 160 161 161 163 163 162 163 162 160 157 153 148 144 144 148 146 134 126 124 126 126 123 119 114 110 106 104 103 103 98 95 91 88
155 156 155 156 157 154 152 155 155 154 154 156 158 156 153 153 150 154 161 165 166 168 167 165 162 159 159 158 156 150 139 133 134 139 141 131 125 122 121 120 117 113 111 110 107 104 101 97 93 90 90 88 83 80
152 150 155 160 159 156 155 158 157 159 157 158 161 157 158 161 161 162 153 150 154 159 160 157 151 143 132 129 126 128 128 127 130 127 117 114 111 110 109 109 107 104 102 100 98 95 92 89 86 83 83 79 79 77
106 110 109 114 125 136 132 118 114 111 117 119 117 123 126 131 128 122 119 123 128 132 133 132 128 124 122 122 117 114 115 115 112 105 101 102 102 100 98 99 98 94 90 87 85 83 80 77 74 72 73 73 71 67
88 88 88 89 90 89 91 96 100 97 96 95 99 107 108 103 103 105 106 107 108 109 109 109 110 111 109 107 104 104 107 103 97 92 89 88 88 86 85 84 81 80 76 76 74 71 71 70 67 64 62 62 59 56
73 74 74 74 75 76 78 79 79 74 75 81 79 85 85 85 83 84 86 86 88 90 91 91 92 92 94 95 92 90 89 83 82 81 82 88 86 83 81 80 78 75 73 72 68 66 64 60 57 57 55 53 52 49
63 65 68 70 70 70 70 73 71 67 68 69 73 78 75 76 80 79 81 82 82 83 83 84 86 86 87 86 82 79 80 80 79 78 85 80 77 76 76 74 72 69 64 61 59 58 56 54 53 51 49 48 47 46
64 64 66 66 68 68 69 72 70 67 65 68 73 71 68 70 71 72 72 72 71 71 74 76 76 75 76 76 75 73 73 74 71 70 73 72 70 69 67 64 61 59 59 58 56 52 50 49 46 43 42 41 43 42
61 61 62 63 65 65 67 66 63 63 62 68 70 68 70 71 71 69 68 66 67 70 64 65 65 65 66 66 66 65 65 65 64 62 60 63 64 64 63 61 58 57 55 52 51 48 44 42 41 39 38 36 36 36
59 59 61 63 62 64 65 64 60 61 59 63 63 63 64 66 67 66 65 68 67 65 61 60 60 59 58 57 57 58 59 59 59 58 57 58 59 59 57 55 54 52 50 47 46 43 40 39 38 37 36 35 34 32
55 54 57 59 62 62 59 61 61 61 59 60 60 58 59 61 61 60 62 66 65 63 60 58 57 54 53 54 53 54 55 56 56 57 57 55 54 54 52 49 48 50 49 45 42 40 39 39 38 36 34 33 30 27
52 51 54 58 62 59 58 60 60 60 59 58 55 54 54 54 54 56 61 63 61 59 57 57 57 55 52 51 50 50 51 52 51 52 53 53 51 48 47 45 43 44 46 45 42 39 37 36 35 34 33 30 28 25
54 54 55 58 57 56 57 60 60 58 57 58 56 56 54 50 49 52 59 60 58 56 55 55 54 53 51 50 50 49 49 48 47 47 48 48 48 46 43 41 38 40 41 41 40 37 36 35 34 33 32 29 27 24
60 58 60 59 57 59 58 58 59 59 58 56 55 56 56 54 54 52 54 55 55 55 55 54 52 50 51 50 49 49 49 47 45 42 41 42 43 43 42 40 38 33 35 39 40 37 34 33 32 30 28 28 26 24
62 63 61 60 61 61 59 59 59 58 59 57 57 58 56 54 55 56 54 54 53 53 52 51 50 49 49 48 48 48 48 48 46 43 40 40 41 41 41 40 40 38 35 33 34 36 35 33 32 30 27 26 25 24
67 66 65 64 61 61 59 59 58 57 57 58 58 59 58 58 56 56 56 56 55 54 53 52 51 50 49 48 48 48 48 48 47 45 42 40 40 39 38 39 38 37 35 33 33 32 34 34 33 31 28 26 26 24
69 68 66 65 64 62 62 62 60 60 60 59 58 58 57 57 56 55 55 54 53 53 53 52 52 51 50 49 49 48 48 48 47 46 44 41 38 38 38 38 36 35 34 32 31 32 31 30 32 32 30 27 26 26
66 66 65 65 65 64 64 63 61 61 61 60 59 57 56 55 55 55 53 53 52 51 51 50 50 50 50 50 50 49 48 47 47 46 44 41 39 37 36 36 36 37 36 33 30 27 29 29 29 30 30 29 28 26
66 65 64 63 62 62 60 59 57 57 59 59 58 56 54 54 55 54 52 51 51 51 50 50 50 49 49 48 48 48 48 47 47 46 45 43 40 37 36 36 34 35 36 35 34 32 29 27 26 26 28 29 30 29
62 61 60 60 61 60 60 59 57 57 57 56 56 55 54 52 51 51 51 51 49 48 48 48 47 47 47 46 45 45 46 47 47 46 46 45 44 40 36 35 34 35 35 35 35 34 33 31 29 27 26 27 27 28
62 60 58 56 56 56 56 55 53 54 56 56 56 54 51 49 48 48 48 49 49 49 48 47 46 46 45 44 44 43 44 44 44 44 44 44 44 42 39 36 33 33 34 34 34 34 33 33 32 31 30 28 27 26
Wind_Direction
249 252 254 256 259 260 261 261 261 264 267 269 270 273 274 275 277 278 280 280 281 281 282 281 284 287 291 292 293 292 291 290 294 300 301 301 303 307 310 304 303 306 305 303 307 311 316 314 316 318 320 319 318 318
249 253 256 259 261 263 264 264 264 265 268 268 269 269 270 273 276 278 280 281 283 284 282 285 288 290 290 288 285 290 294 294 295 294 301 303 304 304 306 307 304 305 303 306 309 319 316 314 316 317 319 317 315 315
251 254 257 259 261 263 266 265 266 267 269 272 273 272 272 275 278 278 279 279 281 284 287 287 288 287 288 286 286 288 295 297 299 299 300 307 307 305 306 308 305 305 300 308 313 317 312 314 314 314 313 314 315 314
251 254 256 257 258 261 262 264 265 268 272 273 271 271 272 277 280 285 280 280 285 287 285 284 292 290 287 286 288 292 293 296 299 301 301 303 307 307 308 312 312 301 304 307 317 311 311 312 313 312 312 312 313 312
252 254 254 255 256 258 261 263 266 272 276 275 273 275 275 284 288 288 286 286 287 288 284 282 289 294 289 290 293 294 296 295 296 297 299 300 305 305 309 313 309 301 303 310 311 310 310 312 310 311 311 311 312 310
259 256 256 256 258 259 261 266 267 272 274 277 275 280 280 286 287 285 290 293 291 287 288 287 290 293 292 293 289 292 295 297 297 299 302 306 306 307 311 311 303 302 305 305 307 309 310 308 308 310 310 309 308 305
262 264 267 263 262 262 264 268 272 273 274 276 275 279 280 281 284 287 286 289 294 293 295 294 292 294 295 295 293 294 297 299 300 303 305 304 304 307 310 307 302 306 304 304 305 305 305 306 307 307 307 307 305 305
261 263 263 263 265 266 268 269 270 272 275 277 278 280 281 284 285 289 289 290 290 291 292 297 293 290 293 294 296 297 297 298 300 301 302 303 305 304 306 302 302 301 301 301 302 303 304 304 305 306 305 304 304 303
261 262 265 266 267 270 272 272 275 276 277 279 280 284 285 286 287 287 290 291 292 295 297 298 293 291 295 294 293 295 298 299 301 301 301 302 302 300 299 299 299 298 298 300 301 302 303 302 302 303 304 302 300 299
266 268 270 270 270 274 275 276 276 279 279 280 282 285 289 287 286 287 289 289 293 292 295 295 293 292 294 296 296 294 295 295 296 297 297 299 299 297 296 295 295 297 299 299 300 301 299 299 300 302 301 300 299 300
267 267 269 271 272 272 274 275 275 277 279 281 283 284 286 287 286 287 288 289 290 291 291 289 291 292 293 292 292 294 294 295 297 298 298 299 297 294 293 295 298 297 297 298 297 297 296 297 298 297 297 297 298 300
266 268 269 272 272 273 275 276 277 279 280 282 283 284 284 285 286 286 287 286 285 286 287 287 288 289 290 291 292 292 293 295 297 297 297 296 293 292 295 295 294 295 296 295 294 295 296 296 296 298 299 299 300 299
269 268 269 271 272 272 275 277 278 280 280 281 281 282 284 283 286 287 286 284 284 284 284 285 286 288 289 290 290 291 292 293 294 294 294 292 292 293 293 294 294 293 293 292 292 294 296 296 297 296 297 296 296 296
268 268 268 270 272 272 274 275 277 277 278 279 280 281 282 282 283 281 281 281 281 282 283 284 285 287 288 288 288 290 292 293 292 291 289 288 291 291 291 291 291 291 291 292 294 295 295 296 297 297 297 297 297 297
269 270 268 268 269 272 273 274 276 277 277 277 279 280 279 276 276 277 277 278 279 280 281 283 285 284 285 286 288 288 289 289 287 285 288 291 292 290 289 291 291 291 292 294 295 296 297 297 297 296 297 299 299 299
272 272 271 271 269 271 272 274 275 277 276 276 276 274 273 273 274 274 276 277 278 280 282 282 283 284 285 285 286 287 286 284 285 289 292 291 289 290 293 293 293 295 296 297 296 295 296 297 296 297 297 297 298 299
270 271 272 273 273 274 275 275 275 278 279 276 275 277 276 277 277 278 279 279 280 280 281 283 284 284 285 285 284 283 283 285 288 290 289 289 289 289 292 295 297 296 297 296 298 299 297 297 298 297 297 298 299 300
276 277 277 276 276 277 277 277 277 277 277 277 279 278 280 283 282 279 278 279 280 282 283 284 284 285 284 282 282 283 285 288 287 286 285 282 287 291 292 292 291 292 294 296 297 296 297 299 299 299 300 301 301 302
279 280 280 281 280 279 279 278 279 280 281 282 282 282 284 285 284 284 283 282 282 282 283 282 282 280 281 285 286 285 285 285 285 286 285 288 289 289 289 291 294 297 298 298 297 298 299 301 300 300 301 301 301 300
283 282 281 281 281 281 280 280 282 282 282 281 281 283 285 285 286 286 286 287 288 287 283 283 287 288 286 287 288 288 287 287 288 289 290 291 291 291 292 295 298 298 297 296 298 299 301 300 301 303 302 301 298 297
284 284 285 285 284 284 284 283 285 285 284 282 283 285 287 287 287 288 290 293 291 288 293 291 291 290 290 291 292 291 290 288 288 290 291 290 291 293 296 297 297 297 296 298 298 300 301 302 304 305 303 299 297 298
284 286 286 285 285 285 287 288 288 286 286 284 285 286 286 286 288 290 291 289 290 293 297 298 298 297 297 295 292 290 290 291 291 291 291 291 293 295 296 297 296 297 297 299 299 301 304 306 305 304 301 299 297 297
282 284 284 284 284 287 289 289 289 288 287 286 287 287 287 288 289 290 288 288 291 293 296 297 297 299 299 297 295 294 292 291 291 292 292 293 293 294 295 297 299 299 299 300 301 303 304 304 303 302 301 299 297 298
287 288 286 287 287 290 290 291 291 290 289 287 286 286 285 286 288 287 285 286 289 291 292 294 296 299 299 299 299 297 295 293 293 292 292 293 294 295 296 297 297 297 299 300 300 301 299 299 299 299 299 298 298 299
291 290 290 289 289 290 291 291 291 290 289 289 290 290 289 290 287 285 285 287 289 289 289 291 292 294 296 297 297 297 297 297 297 296 295 295 296 296 296 296 296 297 296 296 296 296 297 297 296 296 296 296 296 295
291 292 293 291 291 292 292 292 292 292 290 289 289 290 292 293 291 287 286 287 288 287 289 290 291 292 292 292 293 293 294 296 298 300 301 301 299 297 296 295 293 290 291 294 296 296 296 295 294 292 293 294 293 291
294 294 293 293 292 292 293 291 291 291 290 289 290 291 291 291 291 291 291 292 291 290 290 290 290 291 292 292 292 291 290 292 295 298 300 302 302 302 301 298 295 294 292 289 287 288 290 288 287 287 287 290 290 289
295 294 293 292 294 292 291 290 290 291 291 290 290 290 291 291 291 291 291 291 291 291 292 292 293 294 294 294 292 291 292 292 292 293 293 293 294 295 297 298 298 296 293 290 286 283 284 286 285 282 281 281 283 283
293 292 294 295 294 294 294 294 295 294 293 291 290 289 289 289 290 290 289 289 289 289 290 291 292 292 292 292 291 291 290 290 289 289 291 291 291 291 293 295 297 298 298 295 290 287 283 280 281 282 281 277 275 276
290 291 292 292 292 292 292 292 292 291 291 290 290 290 289 289 289 289 288 289 289 289 289 288 288 288 288 288 289 289 289 288 289 290 290 290 289 290 290 289 291 294 296 297 295 290 284 279 275 274 275 276 275 271
289 290 291 291 291 291 291 290 290 289 288 288 288 288 288 287 288 288 288 288 287 287 286 286 286 286 286 286 286 286 287 288 288 288 289 290 290 289 287 285 286 285 286 289 292 295 294 290 282 272 268 268 269 271
289 290 291 291 291 291 291 291 291 291 289 288 288 288 287 287 287 286 287 286 286 285 284 284 284 284 283 283 282 281 282 282 283 285 286 288 289 289 288 285 283 280 280 281 283 285 288 290 290 287 281 272 266 262
292 292 292 291 290 289 289 289 289 289 289 289 289 289 289 288 287 286 285 284 284 285 284 284 283 283 282 282 281 279 279 279 279 280 281 282 284 285 286 285 284 281 279 276 276 277 277 278 281 283 284 282 277 267